Regional Weather Roundup
Issued by NWS

Home | Current Version | Previous Version | Graphics & Text | Print | Product List | Glossary Off
Versions: 1 2 3 4 5 6 7 8 9 10 11 12 13 14 15 16 17 18 19 20 21 22 23 24 25 26 27 28 29 30 31 32 33 34 35 36 37 38 39 40 41 42 43 44 45 46 47 48 49 50

000
ASUS43 KMPX 080301
RWRMN
WEATHER ROUNDUP FOR MINNESOTA
NATIONAL WEATHER SERVICE TWIN CITIES/CHANHASSEN MN
900 PM CST WED DEC 07 2016


NOTE: "FAIR" INDICATES FEW OR NO CLOUDS BELOW 12,000 FEET WITH NO
SIGNIFICANT WEATHER AND/OR OBSTRUCTIONS TO VISIBILITY. N/A MEANS
CURRENT SKY AND/OR WEATHER CONDITIONS ARE NOT AVAILABLE.

MNZ060>063-068>070-080400-
   Twin Cities Metro

CITY           SKY/WX    TMP DP  RH WIND       PRES   REMARKS
TWIN CITIES    FLURRIES  16   8  71 W16       30.12S WCI   1
ST PAUL        FLURRIES  17   9  70 W20       30.14R WCI   1
CRYSTAL        FLURRIES  16   6  65 W15G25    30.11S WCI   1
BLAINE         CLOUDY    18  10  73 W20G28    30.09S WCI   1
LAKEVILLE      LGT SNOW  14  10  85 W17G28    30.13R WCI  -3
EDEN PRAIRIE   CLOUDY    16   7  67 W16G31    30.13S WCI   1
SOUTH ST PAUL  FLURRIES  17   9  70 W16G23    30.12S WCI   2
LAKE ELMO      FLURRIES  18  10  73 W15G25    30.11S WCI   3
$$
MNZ001>005-007-008-013>017-022>024-027-028-080400-
   Northwest Minnesota

CITY           SKY/WX    TMP DP  RH WIND       PRES   REMARKS
BEMIDJI        LGT SNOW  20  18  90 NW15      29.99R WCI   6
HALLOCK          N/A     21  18  86 NW23G29   30.15R WCI   5
ROSEAU         LGT SNOW  19  16  86 N18G24    30.08R WCI   4
WARROAD        CLOUDY    19  16  86 NW12G20   30.06R WCI   7
THIEF RVR FALL FLURRIES  20  17  88 NW17      30.10R WCI   5
CROOKSTON      LGT SNOW  21  19  93 N26G35    30.14R WCI   4
FOSSTON        LGT SNOW  18  16  93 NW15G21   30.06R WCI   3
DETROIT LAKES  LGT SNOW  18  16  93 NW23G30   30.08R WCI   0
MOORHEAD       MIX PCPN  16  14  93 NW21      30.17R WCI  -2
PARK RAPIDS    LGT SNOW  18  11  74 NW17      30.01R WCI   3
$$
MNZ006-009>011-018-025>026-080400-
   North Central Minnesota

CITY           SKY/WX    TMP DP  RH WIND       PRES   REMARKS
BAUDETTE       LGT SNOW  22  17  81 N15G25    29.99R WCI   9
FLAG ISLAND    CLOUDY    21  18  86 N22       30.04R WCI   5
INTL FALLS     LGT SNOW  23  19  85 N14       29.93R VSB 3/4 WCI  11
WASKISH        LGT SNOW  21  19  93 NW13G20   29.99R WCI   9
BIG FORK       FLURRIES  23  19  86 NW5       29.93R WCI  17
LONGVILLE      FLURRIES  19  16  86 W9G17     29.97S WCI   9
GRAND RAPIDS   LGT SNOW  20  18  92 NW13      29.94R FOG     WCI   7
CRANE LAKE     LGT SNOW  21  19  93 NW7       29.90R WCI  13
ORR            FLURRIES  21  18  86 NW8       29.86R WCI  12
COOK           LGT SNOW  21  19  93 NW6       29.89R WCI  14
$$
MNZ012-019>021-037-080400-
   Northeast Minnesota

CITY           SKY/WX    TMP DP  RH WIND       PRES   REMARKS
DULUTH         LGT SNOW  17  13  84 W16G24    29.88R FOG     WCI   2
ELY            LGT SNOW  19  18  93 NW6       29.83R WCI  11
HIBBING        LGT SNOW  19  16  88 W7        29.89R FOG     WCI  10
EVELETH        LGT SNOW  20  17  88 W6        29.88S WCI  12
DULUTH HARBOR  FLURRIES  21  16  79 SW18      29.95R WCI   6
TWO HARBORS    FLURRIES  21  16  79 W6        29.86R WCI  14
SILVER BAY     LGT SNOW  19  16  86 SW6       29.83R WCI  11
GRAND MARAIS     N/A     26  20  77 VRB3      29.81R
G MARAIS ARPRT LGT SNOW  18  12  79 NW7       29.74R WCI   8
$$
MNZ029>031-032-039>041-046>048-054>057-064-080400-
   West Central Minnesota

CITY           SKY/WX    TMP DP  RH WIND       PRES   REMARKS
FERGUS FALLS   LGT SNOW  12  10  92 NW23      30.20R WCI  -7
WHEATON        LGT SNOW  14  12  92 W24       30.23S WCI  -5
MORRIS         LGT SNOW  12   9  85 W23G29    30.18R VSB 3/4 WCI  -7
ALEXANDRIA     LGT SNOW  11   8  88 NW21G30   30.11S FOG     WCI  -8
ELBOW LAKE     LGT SNOW  11   9  91 NW18      30.16S WCI  -7
WADENA         LGT SNOW  14  10  85 W12G17    30.05S WCI   0
GLENWOOD       LGT SNOW  10   9  92 W23G29    30.12S WCI -10
BENSON         LGT SNOW  12   7  79 NW23G30   30.19R WCI  -7
ORTONVILLE     LGT SNOW  12   5  73 W17G28    30.23S WCI  -5
MADISON        FLURRIES  14   9  79 W24       30.25S WCI  -5
WILLMAR        LGT SNOW  14   9  79 W22G32    30.18S WCI  -4
$$
MNZ033>034-036-042>043-049>051-058-059-080400-
   Central Minnesota

CITY           SKY/WX    TMP DP  RH WIND       PRES   REMARKS
ST CLOUD       FLURRIES  15   8  73 W18G30    30.09S WCI  -2
PAYNESVILLE    FLURRIES  13   9  81 W21G31    30.14R WCI  -5
AITKIN         MIX PCPN  19  10  68 W8G16     29.97S WCI   9
PINE RIVER     LGT SNOW  16  12  86 W6        30.03S WCI   7
BRAINERD       LGT SNOW  16  11  80 W13       30.02R WCI   2
STAPLES        FLURRIES  12  10  92 W15       30.04S WCI  -4
LONG PRAIRIE   LGT SNOW  12   9  85 SW15      30.09R WCI  -4
LITTLE FALLS   LGT SNOW  16  10  79 W13G22    30.07R WCI   2
LITCHFIELD     FLURRIES  16  10  79 W22G28    30.15R WCI  -2
BUFFALO        FLURRIES  16   9  74 W17G24    30.13S WCI   0
MAPLE LAKE     CLOUDY    16  10  77 W13G28    30.12S WCI   3
HUTCHINSON     CLOUDY    15  10  79 W25G33    30.16S WCI  -4
$$
MNZ037-044-045-052-053-080400-
   East Central Minnesota

CITY           SKY/WX    TMP DP  RH WIND       PRES   REMARKS
PRINCETON      FLURRIES  16  10  79 W14G20    30.07S WCI   1
MORA           LGT SNOW  16  10  79 W12G20    30.05S WCI   3
CAMBRIDGE      FLURRIES  18   9  68 W13G20    30.05S WCI   4
RUSH CITY      CLOUDY    16  10  79 W12G20    30.05S WCI   3
MOOSE LAKE     CLOUDY    18  12  79 W8        29.96S HAZE    WCI   7
HINCKLEY       LGT SNOW  18  14  86 W15G21    30.01S WCI   3
CLOQUET        LGT SNOW  16  10  79 W10       29.91S WCI   3
MCGREGOR       CLOUDY    18  14  86 W8G17     29.97R WCI   7
$$
MNZ071>073-080-081-089-090-097-098-080400-
   Southwest Minnesota

CITY           SKY/WX    TMP DP  RH WIND       PRES   REMARKS
MONTEVIDEO     LGT SNOW  14   9  79 NW14G24   30.24S WCI  -1
GRANITE FALLS  CLOUDY    13   8  80 W22       30.25S HAZE    WCI  -6
CANBY          MOCLDY    12   5  73 NW24G33   30.27S WCI  -8
MARSHALL       CLEAR     10   2  69 NW26      30.24F WCI -11
REDWOOD FALLS  CLOUDY    12   4  70 W20G29    30.23R WCI  -6
OLIVIA         FLURRIES  16  10  79 W18G29    30.19S WCI  -1
PIPESTONE      PTCLDY     9   3  78 NW18G31   30.25S HAZE    WCI -10
WINDOM         CLEAR     10   3  72 W24       30.22S WCI -10
WORTHINGTON    PTCLDY     9   3  77 W24G32    30.25S WCI -12
JACKSON        CLEAR     10   3  72 W24G33    30.23S WCI -10
TRACY          PTCLDY    11   4  73 W16G25    30.24S WCI  -6
SLAYTON        CLEAR      8   2  77 W24G30    30.24S WCI -13
$$
MNZ065>067-074>077-082>085-091>093-080400-
   South Central Minnesota

CITY           SKY/WX    TMP DP  RH WIND       PRES   REMARKS
MANKATO        PTCLDY    12   7  79 W21       30.19S WCI  -6
NEW ULM        MOCLDY    10   3  72 W22G30    30.21S WCI  -9
ST JAMES       CLEAR     10   3  72 W22G29    30.24R WCI  -9
FAIRMONT       PTCLDY    12   5  73 W20G28    30.23S WCI  -6
GLENCOE        CLOUDY    15  11  83 W24G31    30.15F WCI  -3
OWATONNA       CLOUDY    16   7  67 W25G31    30.16R WCI  -3
WASECA         CLOUDY    14   9  79 W24G30    30.19S WCI  -5
ALBERT LEA     CLOUDY    18   9  68 W17G29    30.17S WCI   2
$$
MNZ078>079-086>088-094>096-080400-
   Southeast Minnesota

CITY           SKY/WX    TMP DP  RH WIND       PRES   REMARKS
ROCHESTER      LGT SNOW  15   9  76 W24G35    30.11S WCI  -4
RED WING       LGT SNOW  18   9  68 W18G28    30.11R WCI   2
STANTON        LGT SNOW  17  11  74 W16G24    30.13S WCI   2
DODGE CENTER   FLURRIES  16   9  73 W22G28    30.12R WCI  -2
WINONA         FLURRIES  21  12  68 NW15G23   30.14R WCI   8
AUSTIN         CLOUDY    14   7  73 W20G29    30.16R WCI  -3
PRESTON        LGT SNOW  16  10  79 W18       30.13R WCI  -1
$$
ABBREVIATIONS USED IN REMARKS
   TC - TEMPERATURES IN CELSIUS
  WCI - WIND CHILL INDEX
   HX - HEAT INDEX
  VSB - VISIBILITY
$$




USA.gov is the U.S. government's official web portal to all federal, state and local government web resources and services.